Year,Month,Day,Hour,Minute,Value (Times are PST for temperature in C)
2013,10,23,00,00,7.60
2013,10,23,00,01,7.60
2013,10,23,00,02,7.60
2013,10,23,00,03,7.70
2013,10,23,00,04,7.70
2013,10,23,00,05,7.70
2013,10,23,00,06,7.70
2013,10,23,00,07,7.70
2013,10,23,00,08,7.70
2013,10,23,00,09,7.70
2013,10,23,00,10,7.60
2013,10,23,00,11,7.60
2013,10,23,00,12,7.50
2013,10,23,00,13,7.50
2013,10,23,00,14,7.50
2013,10,23,00,15,7.40
2013,10,23,00,16,7.40
2013,10,23,00,17,7.40
2013,10,23,00,18,7.40
2013,10,23,00,19,7.40
2013,10,23,00,20,7.40
2013,10,23,00,21,7.40
2013,10,23,00,22,7.40
2013,10,23,00,23,7.40
2013,10,23,00,24,7.40
2013,10,23,00,25,7.40
2013,10,23,00,26,7.40
2013,10,23,00,27,7.40
2013,10,23,00,28,7.40
2013,10,23,00,29,7.40
2013,10,23,00,30,7.40
2013,10,23,00,31,7.40
2013,10,23,00,32,7.40
2013,10,23,00,33,7.40
2013,10,23,00,34,7.40
2013,10,23,00,35,7.40
2013,10,23,00,36,7.40
2013,10,23,00,37,7.40
2013,10,23,00,38,7.40
2013,10,23,00,39,7.40
2013,10,23,00,40,7.40
2013,10,23,00,41,7.40
2013,10,23,00,42,7.30
2013,10,23,00,43,7.30
2013,10,23,00,44,7.30
2013,10,23,00,45,7.30
2013,10,23,00,46,7.30
2013,10,23,00,47,7.30
2013,10,23,00,48,7.20
2013,10,23,00,49,7.20
2013,10,23,00,50,7.20
2013,10,23,00,51,7.20
2013,10,23,00,52,7.30
2013,10,23,00,53,7.30
2013,10,23,00,54,7.30
2013,10,23,00,55,7.30
2013,10,23,00,56,7.30
2013,10,23,00,57,7.30
2013,10,23,00,58,7.30
2013,10,23,00,59,7.30
2013,10,23,01,00,7.30
2013,10,23,01,01,7.30
2013,10,23,01,02,7.20
2013,10,23,01,03,7.20
2013,10,23,01,04,7.20
2013,10,23,01,05,7.20
2013,10,23,01,06,7.20
2013,10,23,01,07,7.20
2013,10,23,01,08,7.20
2013,10,23,01,09,7.20
2013,10,23,01,10,7.20
2013,10,23,01,11,7.20
2013,10,23,01,12,7.20
2013,10,23,01,13,7.10
2013,10,23,01,14,7.10
2013,10,23,01,15,7.10
2013,10,23,01,16,7.10
2013,10,23,01,17,7.10
2013,10,23,01,18,7.10
2013,10,23,01,19,7.10
2013,10,23,01,20,7.00
2013,10,23,01,21,7.00
2013,10,23,01,22,7.00
2013,10,23,01,23,6.90
2013,10,23,01,24,6.90
2013,10,23,01,25,6.90
2013,10,23,01,26,6.80
2013,10,23,01,27,6.80
2013,10,23,01,28,6.80
2013,10,23,01,29,6.80
2013,10,23,01,30,6.80
2013,10,23,01,31,6.80
2013,10,23,01,32,6.80
2013,10,23,01,33,6.80
2013,10,23,01,34,6.80
2013,10,23,01,35,6.80
2013,10,23,01,36,6.80
2013,10,23,01,37,6.80
2013,10,23,01,38,6.80
2013,10,23,01,39,6.80
2013,10,23,01,40,6.80
2013,10,23,01,41,6.80
2013,10,23,01,42,6.80
2013,10,23,01,43,6.90
2013,10,23,01,44,6.90
2013,10,23,01,45,7.00
2013,10,23,01,46,7.00
2013,10,23,01,47,7.10
2013,10,23,01,48,7.20
2013,10,23,01,49,7.20
2013,10,23,01,50,7.30
2013,10,23,01,51,7.30
2013,10,23,01,52,7.30
2013,10,23,01,53,7.30
2013,10,23,01,54,7.30
2013,10,23,01,55,7.30
2013,10,23,01,56,7.30
2013,10,23,01,57,7.30
2013,10,23,01,58,7.20
2013,10,23,01,59,7.20
2013,10,23,02,00,7.20
2013,10,23,02,01,7.10
2013,10,23,02,02,7.10
2013,10,23,02,03,7.10
2013,10,23,02,04,7.10
2013,10,23,02,05,7.10
2013,10,23,02,06,7.10
2013,10,23,02,07,7.10
2013,10,23,02,08,7.10
2013,10,23,02,09,7.10
2013,10,23,02,10,7.10
2013,10,23,02,11,7.10
2013,10,23,02,12,7.10
2013,10,23,02,13,7.10
2013,10,23,02,14,7.10
2013,10,23,02,15,7.20
2013,10,23,02,16,7.20
2013,10,23,02,17,7.20
2013,10,23,02,18,7.20
2013,10,23,02,19,7.20
2013,10,23,02,20,7.20
2013,10,23,02,21,7.20
2013,10,23,02,22,7.20
2013,10,23,11,47,13.30
2013,10,23,11,48,13.30
2013,10,23,11,49,13.40
2013,10,23,11,50,13.40
2013,10,23,11,51,13.40
2013,10,23,11,52,13.40
2013,10,23,11,53,13.40
2013,10,23,11,54,13.30
2013,10,23,11,55,13.30
2013,10,23,11,56,13.30
2013,10,23,11,57,13.30
2013,10,23,11,58,13.30
2013,10,23,11,59,13.30
2013,10,23,12,00,13.30
2013,10,23,12,01,13.30
2013,10,23,12,02,13.30
2013,10,23,12,03,13.30
2013,10,23,12,04,13.30
2013,10,23,12,05,13.30
2013,10,23,12,06,13.30
2013,10,23,12,07,13.40
2013,10,23,12,08,13.40
2013,10,23,12,09,13.40
2013,10,23,12,10,13.40
2013,10,23,12,11,13.40
2013,10,23,12,12,13.40
2013,10,23,12,13,13.40
2013,10,23,12,14,13.40
2013,10,23,12,15,13.40
2013,10,23,12,16,13.50
2013,10,23,12,17,13.60
2013,10,23,12,18,13.60
2013,10,23,12,19,13.70
2013,10,23,12,20,13.80
2013,10,23,12,21,13.80
2013,10,23,12,22,13.90
2013,10,23,12,23,14.00
2013,10,23,12,24,14.00
2013,10,23,12,25,14.10
2013,10,23,12,26,14.10
2013,10,23,12,27,14.20
2013,10,23,12,28,14.20
2013,10,23,12,29,14.20
2013,10,23,12,30,14.20
2013,10,23,12,31,14.20
2013,10,23,12,32,14.20
2013,10,23,12,33,14.30
2013,10,23,12,34,14.30
2013,10,23,12,35,14.20
2013,10,23,12,36,14.20
2013,10,23,12,37,14.20
2013,10,23,12,38,14.20
2013,10,23,12,39,14.20
2013,10,23,12,40,14.20
2013,10,23,12,41,14.20
2013,10,23,12,42,14.20
2013,10,23,12,43,14.30
2013,10,23,12,44,14.30
2013,10,23,12,45,14.40
2013,10,23,12,46,14.40
2013,10,23,12,47,14.50
2013,10,23,12,48,14.50
2013,10,23,12,49,14.60
2013,10,23,12,50,14.60
2013,10,23,12,51,14.60
2013,10,23,12,52,14.70
2013,10,23,12,53,14.70
2013,10,23,12,54,14.70
2013,10,23,12,55,14.70
2013,10,23,12,56,14.70
2013,10,23,12,57,14.60
2013,10,23,12,58,14.60
2013,10,23,12,59,14.60
2013,10,23,13,00,14.50
2013,10,23,13,01,14.50
2013,10,23,13,02,14.50
2013,10,23,13,03,14.50
2013,10,23,13,04,14.50
2013,10,23,13,05,14.50
2013,10,23,13,06,14.60
2013,10,23,13,07,14.60
2013,10,23,13,08,14.70
2013,10,23,13,09,14.70
2013,10,23,13,10,14.80
2013,10,23,13,11,14.90
2013,10,23,13,12,14.90
2013,10,23,13,13,15.00
2013,10,23,13,14,15.00
2013,10,23,13,15,15.00
2013,10,23,13,16,15.00
2013,10,23,13,17,15.00
2013,10,23,13,18,15.10
2013,10,23,13,19,15.20
2013,10,23,13,20,15.30
2013,10,23,13,21,15.30
2013,10,23,13,22,15.40
2013,10,23,13,23,15.50
2013,10,23,13,24,15.50
2013,10,23,13,25,15.60
2013,10,23,13,26,15.70
2013,10,23,13,27,15.70
2013,10,23,13,28,15.80
2013,10,23,13,29,15.80
2013,10,23,13,30,15.80
2013,10,23,13,31,15.90
2013,10,23,13,32,16.00
2013,10,23,13,33,16.00
2013,10,23,13,34,16.10
2013,10,23,13,35,16.10
2013,10,23,13,36,16.10
2013,10,23,13,37,16.10
2013,10,23,13,38,16.10
2013,10,23,13,39,16.20
2013,10,23,13,40,16.20
2013,10,23,13,41,16.20
2013,10,23,13,42,16.30
2013,10,23,13,43,16.30
2013,10,23,13,44,16.30
2013,10,23,13,45,16.40
2013,10,23,13,46,16.40
2013,10,23,13,47,16.30
2013,10,23,13,48,16.30
2013,10,23,13,49,16.30
2013,10,23,13,50,16.20
2013,10,23,13,51,16.20
2013,10,23,13,52,16.20
2013,10,23,13,53,16.20
2013,10,23,13,54,16.20
2013,10,23,13,55,16.10
2013,10,23,13,56,16.10
2013,10,23,13,57,16.10
2013,10,23,13,58,16.20
2013,10,23,13,59,16.20
2013,10,23,14,00,16.30
2013,10,23,14,01,16.30
2013,10,23,14,02,16.40
2013,10,23,14,03,16.40
2013,10,23,14,04,16.40
2013,10,23,14,05,16.40
2013,10,23,14,06,16.40
2013,10,23,14,07,16.30
2013,10,23,14,08,16.40
2013,10,23,14,09,16.40
2013,10,23,14,10,16.40
2013,10,23,14,11,16.40
2013,10,23,14,12,16.40
2013,10,23,14,13,16.40
2013,10,23,14,14,16.40
2013,10,23,14,15,16.50
2013,10,23,14,16,16.50
2013,10,23,14,17,16.50
2013,10,23,14,18,16.40
2013,10,23,14,19,16.40
2013,10,23,14,20,16.30
2013,10,23,14,21,16.30
2013,10,23,14,22,16.20
2013,10,23,14,23,16.20
2013,10,23,14,24,16.10
2013,10,23,14,25,16.10
2013,10,23,14,26,16.10
2013,10,23,14,27,16.00
2013,10,23,14,28,15.90
2013,10,23,14,29,15.90
2013,10,23,14,30,15.90
2013,10,23,14,31,15.80
2013,10,23,14,32,15.80
2013,10,23,14,33,15.90
2013,10,23,14,34,15.90
2013,10,23,14,35,16.00
2013,10,23,14,36,16.00
2013,10,23,14,37,16.00
2013,10,23,14,38,16.00
2013,10,23,14,39,15.90
2013,10,23,14,40,15.80
2013,10,23,14,41,15.80
2013,10,23,14,42,15.70
2013,10,23,14,43,15.70
2013,10,23,14,44,15.70
2013,10,23,14,45,15.70
2013,10,23,14,46,15.70
2013,10,23,14,47,15.60
2013,10,23,14,48,15.60
2013,10,23,14,49,15.60
2013,10,23,14,50,15.60
2013,10,23,14,51,15.60
2013,10,23,14,52,15.70
2013,10,23,14,53,15.70
2013,10,23,14,54,15.70
2013,10,23,14,55,15.70
2013,10,23,14,56,15.70
2013,10,23,14,57,15.80
2013,10,23,14,58,15.80
2013,10,23,14,59,15.90
2013,10,23,15,00,15.90
2013,10,23,15,01,16.00
2013,10,23,15,02,16.00
2013,10,23,15,03,16.00
2013,10,23,15,04,16.10
2013,10,23,15,05,16.10
2013,10,23,15,06,16.10
2013,10,23,15,07,16.10
2013,10,23,15,08,16.20
2013,10,23,15,09,16.20
2013,10,23,15,10,16.20
2013,10,23,15,11,16.20
2013,10,23,15,12,16.30
2013,10,23,15,13,16.30
2013,10,23,15,14,16.20
2013,10,23,15,15,16.20
2013,10,23,15,16,16.10
2013,10,23,15,17,16.10
2013,10,23,15,18,16.00
2013,10,23,15,19,16.00
2013,10,23,15,20,15.90
2013,10,23,15,21,15.90
2013,10,23,15,22,15.90
2013,10,23,15,23,15.90
2013,10,23,15,24,15.90
2013,10,23,15,25,15.90
2013,10,23,15,26,15.90
2013,10,23,15,27,16.00
2013,10,23,15,28,16.10
2013,10,23,15,29,16.10
2013,10,23,15,30,16.20
2013,10,23,15,31,16.30
2013,10,23,15,32,16.30
2013,10,23,15,33,16.40
2013,10,23,15,34,16.40
2013,10,23,15,35,16.50
2013,10,23,15,36,16.60
2013,10,23,15,37,16.70
2013,10,23,15,38,16.80
2013,10,23,15,39,16.80
2013,10,23,15,40,16.90
2013,10,23,15,41,16.90
2013,10,23,15,42,16.90
2013,10,23,15,43,17.00
2013,10,23,15,44,16.90
2013,10,23,15,45,16.90
2013,10,23,15,46,16.90
2013,10,23,15,47,16.80
2013,10,23,15,48,16.70
2013,10,23,15,49,16.60
2013,10,23,15,50,16.50
2013,10,23,15,51,16.50
2013,10,23,15,52,16.40
2013,10,23,15,53,16.30
2013,10,23,15,54,16.30
2013,10,23,15,55,16.30
2013,10,23,15,56,16.30
2013,10,23,15,57,16.30
2013,10,23,15,58,16.30
2013,10,23,15,59,16.20
2013,10,23,16,00,16.20
2013,10,23,16,01,16.20
2013,10,23,16,02,16.20
2013,10,23,16,03,16.10
2013,10,23,16,04,16.10
2013,10,23,16,05,16.00
2013,10,23,16,06,16.00
2013,10,23,16,07,15.90
2013,10,23,16,08,15.90
2013,10,23,16,09,15.80
2013,10,23,16,10,15.80
2013,10,23,16,11,15.80
2013,10,23,16,12,15.80
2013,10,23,16,13,15.80
2013,10,23,16,14,15.80
2013,10,23,16,15,15.70
2013,10,23,16,16,15.70
2013,10,23,16,17,15.70
2013,10,23,16,18,15.70
2013,10,23,16,19,15.70
2013,10,23,16,20,15.60
2013,10,23,16,21,15.60
2013,10,23,16,22,15.60
2013,10,23,16,23,15.50
2013,10,23,16,24,15.40
2013,10,23,16,25,15.30
2013,10,23,16,26,15.30
2013,10,23,16,27,15.30
2013,10,23,16,28,15.20
2013,10,23,16,29,15.20
2013,10,23,16,30,15.20
2013,10,23,16,31,15.10
2013,10,23,16,32,15.00
2013,10,23,16,33,15.00
2013,10,23,16,34,15.00
2013,10,23,16,35,15.00
2013,10,23,16,36,15.00
2013,10,23,16,37,15.00
2013,10,23,16,38,15.00
2013,10,23,16,39,15.00
2013,10,23,16,40,15.00
2013,10,23,16,41,15.00
2013,10,23,16,42,15.00
2013,10,23,16,43,15.00
2013,10,23,16,44,15.00
2013,10,23,16,45,15.00
2013,10,23,16,46,15.00
2013,10,23,16,47,15.00
2013,10,23,16,48,15.00
2013,10,23,16,49,15.00
2013,10,23,16,50,15.00
2013,10,23,16,51,15.00
2013,10,23,16,52,15.00
2013,10,23,16,53,15.00
2013,10,23,16,54,15.00
2013,10,23,16,55,15.00
2013,10,23,16,56,15.00
2013,10,23,16,57,15.00
2013,10,23,16,58,15.00
2013,10,23,16,59,14.90
2013,10,23,17,00,14.90
2013,10,23,17,01,14.90
2013,10,23,17,02,14.90
2013,10,23,17,03,14.90
2013,10,23,17,04,14.80
2013,10,23,17,05,14.80
2013,10,23,17,06,14.80
2013,10,23,17,07,14.80
2013,10,23,17,08,14.80
2013,10,23,17,09,14.80
2013,10,23,17,10,14.80
2013,10,23,17,11,14.80
2013,10,23,17,12,14.80
2013,10,23,17,13,14.70
2013,10,23,17,14,14.70
2013,10,23,17,15,14.60
2013,10,23,17,16,14.50
2013,10,23,17,17,14.40
2013,10,23,17,18,14.30
2013,10,23,17,19,14.20
2013,10,23,17,20,14.10
2013,10,23,17,21,13.90
2013,10,23,17,22,13.80
2013,10,23,17,23,13.70
2013,10,23,17,24,13.60
2013,10,23,17,25,13.50
2013,10,23,17,26,13.50
2013,10,23,17,27,13.40
2013,10,23,17,28,13.30
2013,10,23,17,29,13.20
2013,10,23,17,30,13.10
2013,10,23,17,31,13.10
2013,10,23,17,32,13.00
2013,10,23,17,33,12.90
2013,10,23,17,34,12.90
2013,10,23,17,35,12.80
2013,10,23,17,36,12.80
2013,10,23,17,37,12.70
2013,10,23,17,38,12.70
2013,10,23,17,39,12.60
2013,10,23,17,40,12.50
2013,10,23,17,41,12.50
2013,10,23,17,42,12.40
2013,10,23,17,43,12.40
2013,10,23,17,44,12.40
2013,10,23,17,45,12.30
2013,10,23,17,46,12.30
2013,10,23,17,47,12.20
2013,10,23,17,48,12.20
2013,10,23,17,49,12.20
2013,10,23,17,50,12.20
2013,10,23,17,51,12.10
2013,10,23,17,52,12.10
2013,10,23,17,53,12.10
2013,10,23,17,54,12.00
2013,10,23,17,55,12.00
2013,10,23,17,56,11.90
2013,10,23,17,57,11.90
2013,10,23,17,58,11.90
2013,10,23,17,59,11.80
2013,10,23,18,00,11.80
2013,10,23,18,01,11.80
2013,10,23,18,02,11.80
2013,10,23,18,03,11.70
2013,10,23,18,04,11.70
2013,10,23,18,05,11.70
2013,10,23,18,06,11.60
2013,10,23,18,07,11.60
2013,10,23,18,08,11.60
2013,10,23,18,09,11.50
2013,10,23,18,10,11.50
2013,10,23,18,11,11.40
2013,10,23,18,12,11.30
2013,10,23,18,13,11.30
2013,10,23,18,14,11.30
2013,10,23,18,15,11.20
2013,10,23,18,16,11.20
2013,10,23,18,17,11.10
2013,10,23,18,18,11.10
2013,10,23,18,19,11.10
2013,10,23,18,20,11.00
2013,10,23,18,21,11.00
2013,10,23,18,22,10.90
2013,10,23,18,23,10.90
2013,10,23,18,24,10.90
2013,10,23,18,25,10.80
2013,10,23,18,26,10.80
2013,10,23,18,27,10.70
2013,10,23,18,28,10.70
2013,10,23,18,29,10.70
2013,10,23,18,30,10.60
2013,10,23,18,31,10.60
2013,10,23,18,32,10.60
2013,10,23,18,33,10.50
2013,10,23,18,34,10.50
2013,10,23,18,35,10.40
2013,10,23,18,36,10.40
2013,10,23,18,37,10.40
2013,10,23,18,38,10.30
2013,10,23,18,39,10.30
2013,10,23,18,40,10.30
2013,10,23,18,41,10.30
2013,10,23,18,42,10.20
2013,10,23,18,43,10.20
2013,10,23,18,44,10.20
2013,10,23,18,45,10.10
2013,10,23,18,46,10.10
2013,10,23,18,47,10.10
2013,10,23,18,48,10.10
2013,10,23,18,49,10.00
2013,10,23,18,50,9.90
2013,10,23,18,51,9.90
2013,10,23,18,52,9.80
2013,10,23,18,53,9.80
2013,10,23,18,54,9.70
2013,10,23,18,55,9.70
2013,10,23,18,56,9.70
2013,10,23,18,57,9.60
2013,10,23,18,58,9.60
2013,10,23,18,59,9.50
2013,10,23,19,00,9.50
2013,10,23,19,01,9.50
2013,10,23,19,02,9.40
2013,10,23,19,03,9.40
2013,10,23,19,04,9.40
2013,10,23,19,05,9.30
2013,10,23,19,06,9.30
2013,10,23,19,07,9.30
2013,10,23,19,08,9.20
2013,10,23,19,09,9.20
2013,10,23,19,10,9.20
2013,10,23,19,11,9.20
2013,10,23,19,12,9.20
2013,10,23,19,13,9.20
2013,10,23,19,14,9.10
2013,10,23,19,15,9.10
2013,10,23,19,16,9.10
2013,10,23,19,17,9.10
2013,10,23,19,18,9.10
2013,10,23,19,19,9.10
2013,10,23,19,20,9.00
2013,10,23,19,21,9.00
2013,10,23,19,22,9.00
2013,10,23,19,23,8.90
2013,10,23,19,24,8.90
2013,10,23,19,25,8.90
2013,10,23,19,26,8.90
2013,10,23,19,27,8.90
2013,10,23,19,28,8.90
2013,10,23,19,29,8.90
2013,10,23,19,30,8.90
2013,10,23,19,31,8.90
2013,10,23,19,32,8.80
2013,10,23,19,33,8.80
2013,10,23,19,34,8.80
2013,10,23,19,35,8.80
2013,10,23,19,36,8.80
2013,10,23,19,37,8.80
2013,10,23,19,38,8.70
2013,10,23,19,39,8.70
2013,10,23,19,40,8.70
2013,10,23,19,41,8.70
2013,10,23,19,42,8.70
2013,10,23,19,43,8.70
2013,10,23,19,44,8.70
2013,10,23,19,45,8.60
2013,10,23,19,46,8.60
2013,10,23,19,47,8.60
2013,10,23,19,48,8.60
2013,10,23,19,49,8.60
2013,10,23,19,50,8.60
2013,10,23,19,51,8.60
2013,10,23,19,52,8.60
2013,10,23,19,53,8.60
2013,10,23,19,54,8.60
2013,10,23,19,55,8.60
2013,10,23,19,56,8.50
2013,10,23,19,57,8.50
2013,10,23,19,58,8.40
2013,10,23,19,59,8.40
2013,10,23,20,00,8.40
2013,10,23,20,01,8.40
2013,10,23,20,02,8.40
2013,10,23,20,03,8.40
2013,10,23,20,04,8.40
2013,10,23,20,05,8.40
2013,10,23,20,06,8.30
2013,10,23,20,07,8.30
2013,10,23,20,08,8.30
2013,10,23,20,09,8.30
2013,10,23,20,10,8.30
2013,10,23,20,11,8.30
2013,10,23,20,12,8.30
2013,10,23,20,13,8.30
2013,10,23,20,14,8.20
2013,10,23,20,15,8.20
2013,10,23,20,16,8.20
2013,10,23,20,17,8.20
2013,10,23,20,18,8.20
2013,10,23,20,19,8.20
2013,10,23,20,20,8.20
2013,10,23,20,21,8.20
2013,10,23,20,22,8.20
2013,10,23,20,23,8.20
2013,10,23,20,24,8.10
2013,10,23,20,25,8.10
2013,10,23,20,26,8.10
2013,10,23,20,27,8.00
2013,10,23,20,28,8.00
2013,10,23,20,29,7.90
2013,10,23,20,30,7.90
2013,10,23,20,31,7.90
2013,10,23,20,32,7.90
2013,10,23,20,33,7.80
2013,10,23,20,34,7.80
2013,10,23,20,35,7.80
2013,10,23,20,36,7.80
2013,10,23,20,37,7.80
2013,10,23,20,38,7.80
2013,10,23,20,39,7.80
2013,10,23,20,40,7.80
2013,10,23,20,41,7.80
2013,10,23,20,42,7.70
2013,10,23,20,43,7.70
2013,10,23,20,44,7.70
2013,10,23,20,45,7.70
2013,10,23,20,46,7.70
2013,10,23,20,47,7.70
2013,10,23,20,48,7.70
2013,10,23,20,49,7.70
2013,10,23,20,50,7.70
2013,10,23,20,51,7.80
2013,10,23,20,52,7.80
2013,10,23,20,53,7.80
2013,10,23,20,54,7.70
2013,10,23,20,55,7.70
2013,10,23,20,56,7.70
2013,10,23,20,57,7.70
2013,10,23,20,58,7.70
2013,10,23,20,59,7.70
2013,10,23,21,00,7.70
2013,10,23,21,01,7.70
2013,10,23,21,02,7.70
2013,10,23,21,03,7.70
2013,10,23,21,04,7.60
2013,10,23,21,05,7.60
2013,10,23,21,06,7.60
2013,10,23,21,07,7.60
2013,10,23,21,08,7.50
2013,10,23,21,09,7.50
2013,10,23,21,10,7.50
2013,10,23,21,11,7.50
2013,10,23,21,12,7.40
2013,10,23,21,13,7.40
2013,10,23,21,14,7.40
2013,10,23,21,15,7.40
2013,10,23,21,16,7.40
2013,10,23,21,17,7.40
2013,10,23,21,18,7.40
2013,10,23,21,19,7.40
2013,10,23,21,20,7.40
2013,10,23,21,21,7.30
2013,10,23,21,22,7.30
2013,10,23,21,23,7.30
2013,10,23,21,24,7.30
2013,10,23,21,25,7.30
2013,10,23,21,26,7.30
2013,10,23,21,27,7.30
2013,10,23,21,28,7.30
2013,10,23,21,29,7.30
2013,10,23,21,30,7.30
2013,10,23,21,31,7.30
2013,10,23,21,32,7.30
2013,10,23,21,33,7.30
2013,10,23,21,34,7.30
2013,10,23,21,35,7.30
2013,10,23,21,36,7.20
2013,10,23,21,37,7.20
2013,10,23,21,38,7.20
2013,10,23,21,39,7.20
2013,10,23,21,40,7.20
2013,10,23,21,41,7.20
2013,10,23,21,42,7.20
2013,10,23,21,43,7.20
2013,10,23,21,44,7.20
2013,10,23,21,45,7.20
2013,10,23,21,46,7.20
2013,10,23,21,47,7.20
2013,10,23,21,48,7.20
2013,10,23,21,49,7.20
2013,10,23,21,50,7.20
2013,10,23,21,51,7.20
2013,10,23,21,52,7.20
2013,10,23,21,53,7.20
2013,10,23,21,54,7.20
2013,10,23,21,55,7.20
2013,10,23,21,56,7.20
2013,10,23,21,57,7.20
2013,10,23,21,58,7.20
2013,10,23,21,59,7.20
2013,10,23,22,00,7.10
2013,10,23,22,01,7.10
2013,10,23,22,02,7.10
2013,10,23,22,03,7.10
2013,10,23,22,04,7.10
2013,10,23,22,05,7.00
2013,10,23,22,06,7.00
2013,10,23,22,07,7.00
2013,10,23,22,08,6.90
2013,10,23,22,09,6.90
2013,10,23,22,10,6.90
2013,10,23,22,11,6.90
2013,10,23,22,12,6.90
2013,10,23,22,13,6.90
2013,10,23,22,14,6.80
2013,10,23,22,15,6.80
2013,10,23,22,16,6.80
2013,10,23,22,17,6.80
2013,10,23,22,18,6.80
2013,10,23,22,19,6.80
2013,10,23,22,20,6.80
2013,10,23,22,21,6.80
2013,10,23,22,22,6.90
2013,10,23,22,23,6.90
2013,10,23,22,24,6.90
2013,10,23,22,25,6.90
2013,10,23,22,26,6.90
2013,10,23,22,27,6.90
2013,10,23,22,28,6.90
2013,10,23,22,29,6.90
2013,10,23,22,30,6.90
2013,10,23,22,31,6.80
2013,10,23,22,32,6.80
2013,10,23,22,33,6.80
2013,10,23,22,34,6.80
2013,10,23,22,35,6.70
2013,10,23,22,36,6.70
2013,10,23,22,37,6.70
2013,10,23,22,38,6.70
2013,10,23,22,39,6.70
2013,10,23,22,40,6.70
2013,10,23,22,41,6.70
2013,10,23,22,42,6.70
2013,10,23,22,43,6.70
2013,10,23,22,44,6.70
2013,10,23,22,45,6.70
2013,10,23,22,46,6.70
2013,10,23,22,47,6.70
2013,10,23,22,48,6.70
2013,10,23,22,49,6.70
2013,10,23,22,50,6.60
2013,10,23,22,51,6.60
2013,10,23,22,52,6.60
2013,10,23,22,53,6.60
2013,10,23,22,54,6.60
2013,10,23,22,55,6.60
2013,10,23,22,56,6.60
2013,10,23,22,57,6.70
2013,10,23,22,58,6.70
2013,10,23,22,59,6.70
2013,10,23,23,00,6.70
2013,10,23,23,01,6.70
2013,10,23,23,02,6.70
2013,10,23,23,03,6.70
2013,10,23,23,04,6.70
2013,10,23,23,05,6.70
2013,10,23,23,06,6.70
2013,10,23,23,07,6.70
2013,10,23,23,08,6.70
2013,10,23,23,09,6.70
2013,10,23,23,10,6.60
2013,10,23,23,11,6.60
2013,10,23,23,12,6.60
2013,10,23,23,13,6.60
2013,10,23,23,14,6.70
2013,10,23,23,15,6.70
2013,10,23,23,16,6.70
2013,10,23,23,17,6.70
2013,10,23,23,18,6.70
2013,10,23,23,19,6.70
2013,10,23,23,20,6.70
2013,10,23,23,21,6.70
2013,10,23,23,22,6.70
2013,10,23,23,23,6.70
2013,10,23,23,24,6.70
2013,10,23,23,25,6.70
2013,10,23,23,26,6.70
2013,10,23,23,27,6.70
2013,10,23,23,28,6.70
2013,10,23,23,29,6.70
2013,10,23,23,30,6.70
2013,10,23,23,31,6.70
2013,10,23,23,32,6.70
2013,10,23,23,33,6.70
2013,10,23,23,34,6.70
2013,10,23,23,35,6.70
2013,10,23,23,36,6.60
2013,10,23,23,37,6.60
2013,10,23,23,38,6.60
2013,10,23,23,39,6.60
2013,10,23,23,40,6.60
2013,10,23,23,41,6.60
2013,10,23,23,42,6.50
2013,10,23,23,43,6.50
2013,10,23,23,44,6.50
2013,10,23,23,45,6.50
2013,10,23,23,46,6.40
2013,10,23,23,47,6.50
2013,10,23,23,48,6.40
2013,10,23,23,49,6.40
2013,10,23,23,50,6.40
2013,10,23,23,51,6.40
2013,10,23,23,52,6.40
2013,10,23,23,53,6.40
2013,10,23,23,54,6.40
2013,10,23,23,55,6.40
2013,10,23,23,56,6.40
2013,10,23,23,57,6.40
2013,10,23,23,58,6.30
2013,10,23,23,59,6.30
